CAPE
831 1072 1264 1244 975 1122 1082 960 918 1342 1154 1169 1161 1124 698 459 372 253 829 554 926 902 708 605 767 910 893 703 439 287 117 1 0
381 686 1036 1266 782 1035 1054 939 871 1168 1234 1113 1333 1059 500 362 329 420 499 529 923 590 610 477 612 867 736 520 203 135 18 0 0
183 420 848 780 1099 1009 1043 1105 888 1257 1210 1169 1501 1072 448 326 339 592 633 615 745 739 638 419 640 782 634 400 181 139 4 0 3
279 208 308 793 1008 1220 1175 1061 1055 1177 1468 1432 1207 853 448 411 417 363 633 736 769 595 398 259 281 666 640 339 197 359 93 0 72
252 361 220 533 780 861 918 1269 1318 1178 1345 1324 974 524 425 413 495 483 647 835 721 606 304 148 164 71 577 539 500 596 403 177 112
110 166 342 201 463 838 1128 1290 1220 847 680 850 804 496 436 325 816 396 454 909 691 703 326 182 125 147 622 551 625 728 404 283 61
5 62 91 142 376 598 758 476 690 538 415 517 784 917 582 691 561 444 545 727 490 743 632 567 250 139 591 558 474 553 462 361 208
1 71 272 762 500 819 786 668 470 496 483 574 560 639 611 941 865 454 482 523 416 672 674 532 318 188 329 519 455 483 481 343 368
4 20 76 108 236 607 925 534 420 390 566 719 655 668 554 614 575 393 270 475 464 588 638 631 460 269 260 558 459 526 648 423 410
9 6 51 65 218 302 303 498 378 594 598 459 477 700 451 442 498 498 247 180 217 509 402 469 418 454 400 444 543 385 434 538 342
11 9 24 64 65 121 218 189 133 278 450 569 456 393 393 202 155 197 160 147 151 159 331 376 293 333 356 468 682 659 333 534 476
8 15 13 7 7 9 11 105 79 85 153 174 187 227 264 340 291 189 150 144 90 33 84 178 251 367 376 335 359 449 381 393 422
0 6 3 6 3 4 3 0 0 5 1 49 103 121 180 290 274 200 194 168 144 93 121 38 227 366 339 416 367 388 466 353 307
0 0 1 2 0 2 2 0 0 0 4 5 5 98 120 110 164 217 97 140 140 19 37 10 28 50 41 56 39 165 465 525 407
0 0 0 0 0 0 0 0 0 0 0 0 0 0 20 231 197 144 181 237 208 134 65 69 20 22 4 5 7 22 26 422 491
0 0 0 0 0 0 0 0 0 0 0 0 0 0 4 51 171 291 366 223 281 175 147 135 135 91 45 53 57 110 42 12 233
0 0 0 0 0 0 0 0 0 0 0 0 0 2 0 11 68 192 192 68 121 86 116 104 67 58 74 66 43 37 53 81 72
0 0 0 0 0 0 0 0 0 0 0 0 0 0 0 0 38 7 32 28 45 47 60 84 93 102 86 57 10 5 6 18 254
0 0 0 0 0 0 0 0 0 0 0 0 0 0 0 0 0 27 8 16 24 24 10 38 72 87 85 56 17 21 9 22 42
0 0 0 0 0 0 0 0 0 0 0 0 0 0 0 0 0 0 0 1 9 20 31 17 31 52 26 40 33 23 25 2 20
CIN
-0 -0 -0 -1 -2 -3 -0 -1 -1 -5 -2 -0 -0 -0 -12 -32 -17 -1 -11 -0 -3 -0 -3 -14 -2 -0 -0 -0 -1 -0 -29 -0 -0
-32 -3 -0 -0 -6 -2 -0 -1 -1 -0 -3 -0 -0 -2 -24 -7 -12 -11 -5 -0 -3 -8 -8 -3 -2 -4 -0 -0 -5 -13 -36 -0 -0
-89 -32 -1 -5 -0 -3 -6 -1 -1 -4 -1 -1 -0 -2 -28 -26 -18 -14 -6 -7 -6 -4 -9 -6 -0 -0 -0 -0 -3 -11 -43 -0 -19
-52 -72 -37 -7 -1 -0 -6 -2 -3 -8 -1 -0 -7 -12 -31 -6 -0 -1 -5 -10 -0 -0 -7 -12 -6 -0 -0 -2 -6 -0 -17 -0 -39
-47 -22 -52 -20 -12 -3 -6 -1 -1 -2 -2 -1 -7 -25 -28 -38 -19 -1 -14 -11 -0 -0 -10 -30 -22 -32 -0 -1 -2 -0 -0 -12 -25
-30 -67 -23 -56 -33 -4 -1 -0 -1 -5 -18 -13 -11 -25 -22 -19 -7 -31 -35 -13 -2 -0 -11 -31 -32 -15 -0 -0 -1 -0 -0 -3 -56
-42 -88 -81 -60 -31 -13 -9 -28 -4 -8 -0 -16 -8 -2 -0 -3 -6 -21 -24 -14 -9 -0 -0 -0 -9 -15 -0 -0 -0 -0 -0 -0 -5
-0 -141 -23 -0 -2 -4 -7 -9 -2 -1 -0 -2 -1 -0 -0 -2 -7 -7 -31 -20 -8 -2 -4 -3 -4 -10 -0 -0 -1 -0 -0 -2 -1
-0 -201 -86 -45 -16 -0 -0 -9 -12 -11 -6 -1 -4 -6 -3 -1 -17 -6 -5 -29 -10 -1 -0 -1 -2 -7 -4 -0 -0 -3 -1 -1 -0
-132 -64 -141 -57 -3 -0 -0 -0 -5 -2 -6 -18 -13 -2 -20 -13 -13 -19 -35 -44 -41 -4 -2 -0 -0 -0 -0 -0 -0 -4 -1 -0 -2
-0 -0 -72 -118 -48 -7 -0 -0 -0 -3 -3 -0 -2 -4 -5 -29 -27 -20 -19 -33 -21 -19 -14 -2 -0 -0 -0 -0 -1 -1 -6 -0 -0
-8 -1 -10 -17 -7 -3 -5 -0 -7 -25 -1 -0 -4 -13 -23 -5 -0 -2 -3 -3 -13 -15 -11 -24 -12 -1 -1 -0 -0 -0 -4 -2 -1
-0 -0 -0 -0 -0 -0 -0 -0 -0 -6 -0 -3 -1 -10 -20 -0 -14 -15 -0 -1 -4 -13 -19 -36 -0 -0 -6 -0 -0 -0 -2 -6 -3
-0 -0 -0 -0 -0 -1 -0 -0 -0 -0 -0 -0 -0 -9 -17 -20 -9 -34 -0 -3 -1 -28 -63 -104 -59 -50 -49 -31 -1 -0 -0 -1 -1
-0 -0 -0 -0 -0 -0 -0 -0 -0 -0 -0 -0 -0 -0 -11 -7 -8 -16 -7 -0 -0 -4 -8 -2 -17 -2 -2 -82 -0 -0 -31 -0 -0
-0 -0 -0 -0 -0 -0 -0 -0 -0 -0 -0 -0 -0 -0 -18 -3 -22 -0 -0 -5 -2 -21 -3 -0 -2 -7 -24 -12 -19 -3 -55 -10 -1
-0 -0 -0 -0 -0 -0 -0 -0 -0 -0 -0 -0 -0 -0 -0 -16 -29 -14 -4 -0 -8 -0 -0 -0 -0 -0 -0 -0 -1 -18 -5 -23 -26
-0 -0 -0 -0 -0 -0 -0 -0 -0 -0 -0 -0 -0 -0 -0 -0 -5 -1 -0 -0 -0 -0 -0 -6 -15 -0 -0 -0 -12 -0 -28 -37 -7
-0 -0 -0 -0 -0 -0 -0 -0 -0 -0 -0 -0 -0 -0 -0 -0 -0 -5 -0 -0 -0 -0 -0 -0 -0 -0 -0 -0 -1 -2 -0 -18 -16
-0 -0 -0 -0 -0 -0 -0 -0 -0 -0 -0 -0 -0 -0 -0 -0 -0 -0 -0 -0 -0 -0 -0 -0 -0 -0 -1 -0 -0 -3 -0 -9 -8
Wind_Speed
34 31 24 23 20 17 16 20 17 16 17 16 16 16 17 15 10 17 23 15 15 13 13 16 18 17 20 23 25 24 24 nan nan
33 31 28 25 25 24 17 15 18 18 18 18 18 20 20 14 16 27 23 18 17 16 19 23 20 19 21 23 25 23 nan nan nan
33 33 32 26 24 29 23 19 19 22 21 20 22 23 22 17 23 28 27 25 22 21 24 21 24 21 19 26 23 22 nan nan nan
37 33 31 32 25 22 26 24 21 21 23 24 23 26 25 21 27 27 26 28 25 24 25 24 27 27 21 24 24 24 nan nan nan
33 35 32 34 33 24 23 29 33 28 26 28 28 27 26 26 30 29 30 29 27 25 25 26 26 nan 26 28 25 24 25 26 25
37 41 39 36 32 30 27 23 22 26 29 33 31 33 37 31 33 32 35 32 27 27 27 26 26 28 26 28 26 26 25 28 nan
nan nan nan 32 34 35 30 31 25 24 26 38 41 41 27 32 35 35 35 32 27 28 28 28 27 28 28 27 27 27 24 27 28
nan nan 37 41 37 38 38 42 33 29 26 27 29 38 34 35 42 39 37 35 29 29 28 29 28 28 27 28 24 26 28 27 31
nan nan nan 41 43 40 40 42 42 34 31 29 23 31 34 39 36 41 40 39 32 32 29 28 28 28 25 26 23 27 29 28 30
nan nan nan nan 42 44 44 44 41 41 34 30 29 34 34 33 41 41 34 38 43 36 33 30 27 28 28 26 23 24 26 27 30
nan nan nan nan nan 41 44 44 43 43 42 39 38 39 39 42 37 41 41 36 38 43 40 39 34 31 29 27 25 24 25 25 25
nan nan nan nan nan nan nan 42 nan nan 44 46 45 46 44 49 41 37 30 43 nan nan nan 44 40 34 32 33 33 27 26 24 27
nan nan nan nan nan nan nan nan nan nan nan nan 37 40 52 49 45 45 44 36 30 nan 40 nan 30 33 45 42 35 34 30 26 26
nan nan nan nan nan nan nan nan nan nan nan nan nan nan 49 48 40 35 nan 48 55 nan nan nan nan nan nan nan nan 38 36 31 27
nan nan nan nan nan nan nan nan nan nan nan nan nan nan nan 50 55 58 43 39 35 34 nan nan nan nan nan nan nan nan nan 44 35
nan nan nan nan nan nan nan nan nan nan nan nan nan nan nan nan 47 53 53 55 51 52 55 55 49 nan nan nan nan 40 nan nan 40
nan nan nan nan nan nan nan nan nan nan nan nan nan nan nan nan nan 51 53 nan 67 nan 75 71 nan nan nan nan nan nan nan nan nan
nan nan nan nan nan nan nan nan nan nan nan nan nan nan nan nan nan nan nan nan nan nan nan nan nan 69 nan nan nan nan nan nan 40
nan nan nan nan nan nan nan nan nan nan nan nan nan nan nan nan nan nan nan nan nan nan nan nan nan nan nan nan nan nan nan nan nan
nan nan nan nan nan nan nan nan nan nan nan nan nan nan nan nan nan nan nan nan nan nan nan nan nan nan nan nan nan nan nan nan nan
Wind_Direction
238 243 250 254 251 248 259 226 245 245 251 240 237 244 249 249 233 223 238 234 249 252 248 221 225 226 233 230 230 226 227 nan nan
235 234 232 246 245 246 255 259 239 246 251 245 245 244 249 241 230 230 242 231 249 241 244 225 228 233 243 236 229 231 nan nan nan
234 239 236 238 242 242 244 253 251 244 249 248 246 247 247 234 217 239 237 242 245 237 239 232 228 233 242 247 233 230 nan nan nan
238 236 234 239 252 242 240 245 250 259 252 247 244 249 246 231 234 239 234 250 249 241 234 229 229 235 237 249 240 237 nan nan nan
247 244 241 235 238 245 240 247 251 250 252 252 247 246 245 230 220 232 236 254 249 246 240 236 230 nan 231 236 243 243 240 238 236
245 245 239 232 233 231 235 254 234 235 244 247 241 246 241 238 231 226 240 250 249 248 245 239 236 231 235 234 237 242 250 249 nan
nan nan nan 238 241 238 246 247 245 249 251 245 243 232 242 227 231 231 246 245 245 249 249 244 234 234 233 236 236 240 253 254 250
nan nan 242 244 247 250 251 254 257 256 245 232 247 247 234 235 233 230 244 244 243 245 245 245 237 231 233 232 234 235 244 253 254
nan nan nan 242 242 241 244 250 250 258 227 230 241 237 249 242 236 238 241 242 241 244 245 248 244 236 232 234 234 237 239 246 255
nan nan nan nan 242 242 241 245 249 254 254 243 239 248 243 243 238 238 241 240 229 238 241 241 240 237 234 236 234 231 235 244 249
nan nan nan nan nan 245 245 245 244 245 245 246 243 243 245 251 243 247 250 251 243 229 232 231 227 227 226 232 233 234 235 241 242
nan nan nan nan nan nan nan 247 nan nan 248 246 246 243 245 249 239 239 246 252 nan nan nan 227 222 218 220 220 221 227 231 241 248
nan nan nan nan nan nan nan nan nan nan nan nan 246 249 245 246 246 238 233 266 250 nan 245 nan 223 217 229 223 214 215 229 233 246
nan nan nan nan nan nan nan nan nan nan nan nan nan nan 258 245 241 239 nan 262 261 nan nan nan nan nan nan nan nan 216 220 232 238
nan nan nan nan nan nan nan nan nan nan nan nan nan nan nan 265 269 268 250 255 258 261 nan nan nan nan nan nan nan nan nan 224 235
nan nan nan nan nan nan nan nan nan nan nan nan nan nan nan nan 262 266 264 264 262 261 264 262 259 nan nan nan nan 223 nan nan 223
nan nan nan nan nan nan nan nan nan nan nan nan nan nan nan nan nan 261 257 nan 254 nan 253 250 nan nan nan nan nan nan nan nan nan
nan nan nan nan nan nan nan nan nan nan nan nan nan nan nan nan nan nan nan nan nan nan nan nan nan 251 nan nan nan nan nan nan 215
nan nan nan nan nan nan nan nan nan nan nan nan nan nan nan nan nan nan nan nan nan nan nan nan nan nan nan nan nan nan nan nan nan
nan nan nan nan nan nan nan nan nan nan nan nan nan nan nan nan nan nan nan nan nan nan nan nan nan nan nan nan nan nan nan nan nan